TimeMDT,TemperatureF,Dew PointF,Humidity,Sea Level PressureIn,VisibilityMPH,Wind Direction,Wind SpeedMPH,Gust SpeedMPH,PrecipitationIn,Events,Conditions,WindDirDegrees,DateUTC
12:18 AM,34.0,32.0,92,30.07,3.0,NNW,4.6,-,0.00,Snow,Light Snow,340,2013-10-31 06:18:00
12:23 AM,34.0,32.0,92,30.07,2.5,North,4.6,-,0.01,Snow,Light Snow,350,2013-10-31 06:23:00
12:26 AM,34.0,32.0,92,30.06,1.5,Calm,Calm,-,0.01,Snow,Light Snow,0,2013-10-31 06:26:00
12:37 AM,33.1,32.0,96,30.06,2.0,East,4.6,-,0.02,Snow,Light Snow,80,2013-10-31 06:37:00
12:43 AM,33.1,32.0,96,30.06,8.0,East,5.8,-,0.02,,Overcast,100,2013-10-31 06:43:00
12:53 AM,33.1,32.0,96,30.06,9.0,ESE,5.8,-,0.02,,Overcast,110,2013-10-31 06:53:00
1:53 AM,33.1,32.0,96,30.08,10.0,SE,5.8,-,N/A,,Mostly Cloudy,140,2013-10-31 07:53:00
2:53 AM,34.0,33.1,96,30.08,10.0,SE,6.9,-,N/A,,Overcast,130,2013-10-31 08:53:00
3:53 AM,34.0,32.0,92,30.05,10.0,SE,4.6,-,N/A,,Overcast,130,2013-10-31 09:53:00
4:53 AM,34.0,32.0,92,30.06,10.0,ESE,5.8,-,N/A,,Overcast,110,2013-10-31 10:53:00
5:53 AM,34.0,32.0,92,30.09,10.0,SE,5.8,-,N/A,,Overcast,130,2013-10-31 11:53:00
6:53 AM,34.0,32.0,92,30.09,10.0,Calm,Calm,-,N/A,,Overcast,0,2013-10-31 12:53:00
7:53 AM,34.0,30.9,89,30.12,10.0,Calm,Calm,-,N/A,,Overcast,0,2013-10-31 13:53:00
8:53 AM,35.1,32.0,89,30.14,10.0,SE,3.5,-,N/A,,Overcast,140,2013-10-31 14:53:00
9:53 AM,37.0,33.1,86,30.15,10.0,ESE,4.6,-,N/A,,Overcast,110,2013-10-31 15:53:00
10:53 AM,41.0,30.9,67,30.14,10.0,Calm,Calm,-,N/A,,Overcast,0,2013-10-31 16:53:00
11:53 AM,42.1,27.0,55,30.15,10.0,Calm,Calm,-,N/A,,Overcast,0,2013-10-31 17:53:00
12:53 PM,43.0,24.1,47,30.13,10.0,SSW,3.5,-,N/A,,Overcast,200,2013-10-31 18:53:00
1:53 PM,43.0,23.0,45,30.12,10.0,West,3.5,-,N/A,,Overcast,260,2013-10-31 19:53:00
2:53 PM,44.1,25.0,47,30.11,10.0,Variable,3.5,-,N/A,,Overcast,0,2013-10-31 20:53:00
3:53 PM,44.1,24.1,45,30.10,10.0,Calm,Calm,-,N/A,,Overcast,0,2013-10-31 21:53:00
4:53 PM,45.0,25.0,46,30.08,10.0,SE,5.8,-,N/A,,Overcast,130,2013-10-31 22:53:00
5:53 PM,44.1,27.0,51,30.08,10.0,SE,5.8,-,N/A,,Mostly Cloudy,130,2013-10-31 23:53:00
6:53 PM,42.1,28.0,58,30.09,10.0,East,4.6,-,N/A,,Overcast,100,2013-11-01 00:53:00
7:53 PM,41.0,30.0,65,30.11,10.0,SSE,4.6,-,N/A,,Overcast,160,2013-11-01 01:53:00
8:53 PM,39.9,30.9,70,30.12,10.0,Calm,Calm,-,N/A,,Overcast,0,2013-11-01 02:53:00
9:53 PM,37.0,30.9,79,30.13,10.0,SE,5.8,-,N/A,,Scattered Clouds,140,2013-11-01 03:53:00
10:53 PM,37.0,30.9,79,30.12,10.0,SE,3.5,-,N/A,,Overcast,130,2013-11-01 04:53:00
11:53 PM,37.9,30.0,73,30.11,10.0,SSE,5.8,-,N/A,,Overcast,160,2013-11-01 05:53:00